Facebook Twitter

Wetterstation Laupheim

Messwerte
  Temperatur Wetter Niederschlag Luftdruck Wind
Mo, 06:20 Uhr 17° wolkig - 1020 hPa 8 km/h W
Mo, 06:00 Uhr 17° - - 1018.8 hPa 7 km/h W
Mo, 05:20 Uhr 17° - - 1019 hPa 5 km/h SW
Mo, 05:00 Uhr 18° - - 1018.4 hPa 11 km/h W
Mo, 04:20 Uhr 18° - - 1019 hPa 8 km/h W
Mo, 04:00 Uhr 19° - - 1017.6 hPa 11 km/h W
Mo, 03:20 Uhr 19° - - 1019 hPa 8 km/h SW
Mo, 03:00 Uhr 19° - - 1017.3 hPa 7 km/h SO
Mo, 02:20 Uhr 20° - - 1019 hPa 5 km/h SW
Mo, 02:00 Uhr 20° - - 1017.7 hPa 4 km/h S
Mo, 01:20 Uhr 20° - - 1019 hPa 8 km/h S
Mo, 01:00 Uhr 20° - - 1018.2 hPa 11 km/h SW
Mo, 00:20 Uhr 20° - - 1019 hPa 5 km/h NW
Mo, 00:00 Uhr 21° - - 1017 hPa 4 km/h SW
So, 23:20 Uhr 22° - - 1018 hPa 2 km/h N
So, 23:00 Uhr 23° - - 1016.4 hPa 4 km/h NW
So, 22:20 Uhr 23° - - 1018 hPa 2 km/h N
So, 22:00 Uhr 24° - - 1015.2 hPa 4 km/h W
So, 21:20 Uhr 24° - - 1018 hPa 3 km/h
So, 21:00 Uhr 26° - - 1014.8 hPa 7 km/h SW

Alle Zeitangaben MESZ